Weather History for Altus, OK

Change the Weather History Date:

Monday, February 17, 2014

  Actual Average (KLTS) Record (KLTS)
Temperature  
Mean Temperature 54 °F -  
Max Temperature 66 °F 55 °F 66 °F (2014)
Min Temperature 41 °F 33 °F 31 °F (2014)
Degree Days  
Heating Degree Days 12    
Growing Degree Days 4 (Base 50)    
Moisture  
Dew Point 27 °F    
Average Humidity 37    
Maximum Humidity 79    
Minimum Humidity 16    
Precipitation  
Precipitation 0.00 in - - ()
Sea Level Pressure  
Sea Level Pressure 30.09 in    
Wind  
Wind Speed 10 mph (North)    
Max Wind Speed 28 mph    
Max Gust Speed 36 mph    
Visibility 10 miles    
Events      
Averages and records for this station are not official NWS values.
T = Trace of Precipitation, MM = Missing Value Source: NWS Daily Summary

Daily Weather History Graph

Daily Weather History Graph

Search for Another Location

Airport:

Trip Planner

Search our weather history database for the weather conditions in past years. The results will help you decide how hot, cold, wet, or windy it might be!

Date:

Astronomy

Feb. 17, 2014 Rise Set
Actual Time 7:20 AM CST 6:22 PM CST
Civil Twilight 6:55 AM CST 6:48 PM CST
Nautical Twilight 6:25 AM CST 7:17 PM CST
Astronomical Twilight 5:56 AM CST 7:46 PM CST
Moon 9:09 PM CST (2/17) 8:30 AM CST (2/17)
Length of Visible Light 11h 53m
Length of Day
11h 01m
Waning Gibbous, 93% of the Moon is Illuminated
Feb 17
Waning Gibbous
Feb 22
Last Quarter
Mar 1
New
Mar 8
First Quarter
Mar 16
Full

Hourly Weather History & Observations

Time (CST) Temp. Windchill Dew Point Humidity Pressure Visibility Wind Dir Wind Speed Gust Speed Precip Events Conditions
12:00 AM 53.6 °F - 44.6 °F 72% 29.79 in 10.0 mi SE 8.1 mph - N/A   Clear
12:15 AM 52.7 °F - 44.6 °F 74% 29.79 in 10.0 mi SE 6.9 mph - N/A   Clear
12:35 AM 52.2 °F - 43.7 °F 73% 29.80 in 10.0 mi Calm Calm - N/A   Clear
12:55 AM 52.5 °F - 42.4 °F 69% 29.80 in 10.0 mi SW 4.6 mph - N/A   Clear
1:15 AM 48.4 °F - 41.0 °F 76% 29.80 in 10.0 mi WSW 3.5 mph - N/A   Clear
1:35 AM 49.3 °F - 41.5 °F 75% 29.81 in 10.0 mi Calm Calm - N/A   Clear
2:00 AM 50.0 °F - 41.0 °F 71% 29.82 in 10.0 mi Calm Calm - N/A   Clear
2:15 AM 46.2 °F 44.1 °F 39.4 °F 77% 29.82 in 10.0 mi North 4.6 mph - N/A   Clear
2:35 AM 46.0 °F - 38.7 °F 75% 29.82 in 10.0 mi Calm Calm - N/A   Clear
2:55 AM 44.6 °F - 38.3 °F 79% 29.84 in 10.0 mi Calm Calm - N/A   Clear
3:15 AM 47.3 °F - 40.1 °F 76% 29.84 in 10.0 mi NW 4.6 mph - N/A   Clear
3:35 AM 50.5 °F - 38.3 °F 63% 29.84 in 10.0 mi West 5.8 mph - N/A   Clear
3:55 AM 50.2 °F - 37.6 °F 62% 29.89 in 10.0 mi North 12.7 mph 18.4 mph N/A   Clear
4:15 AM 50.9 °F - 35.8 °F 56% 29.92 in 10.0 mi North 13.8 mph - N/A   Clear
4:40 AM 55.4 °F - 32.0 °F 41% 29.93 in 10.0 mi North 16.1 mph - N/A   Clear
4:55 AM 53.6 °F - 32.0 °F 44% 29.94 in 10.0 mi North 13.8 mph - N/A   Clear
5:15 AM 55.9 °F - 29.3 °F 36% 29.97 in 10.0 mi North 19.6 mph 24.2 mph N/A   Clear
5:40 AM 56.7 °F - 27.7 °F 33% 29.99 in 10.0 mi North 19.6 mph 25.3 mph N/A   Clear
5:55 AM 56.3 °F - 27.1 °F 33% 30.01 in 10.0 mi North 19.6 mph - N/A   Clear
6:15 AM 56.1 °F - 25.7 °F 31% 30.03 in 10.0 mi North 23.0 mph 29.9 mph N/A   Clear
6:35 AM 55.8 °F - 23.4 °F 29% 30.04 in 10.0 mi North 25.3 mph 32.2 mph N/A   Clear
6:55 AM 55.6 °F - 21.7 °F 27% 30.06 in 10.0 mi North 25.3 mph 31.1 mph N/A   Clear
7:15 AM 54.9 °F - 20.5 °F 26% 30.08 in 10.0 mi North 24.2 mph 32.2 mph N/A   Clear
7:35 AM 54.5 °F - 19.9 °F 26% 30.09 in 10.0 mi North 27.6 mph 33.4 mph N/A   Clear
7:55 AM 54.3 °F - 19.2 °F 25% 30.11 in 10.0 mi North 27.6 mph 35.7 mph N/A   Clear
8:15 AM 54.5 °F - 19.4 °F 25% 30.13 in 10.0 mi North 23.0 mph 32.2 mph N/A   Clear
8:35 AM 53.6 °F - 19.8 °F 27% 30.15 in 10.0 mi North 20.7 mph 28.8 mph N/A   Clear
8:55 AM 54.1 °F - 21.2 °F 28% 30.16 in 10.0 mi North 24.2 mph 31.1 mph N/A   Clear
9:15 AM 55.6 °F - 23.4 °F 29% 30.18 in 10.0 mi North 23.0 mph 31.1 mph N/A   Clear
9:35 AM 55.6 °F - 24.8 °F 30% 30.19 in 10.0 mi North 24.2 mph 35.7 mph N/A   Clear
9:55 AM 56.5 °F - 26.2 °F 31% 30.20 in 10.0 mi North 17.3 mph - N/A   Clear
10:15 AM 57.0 °F - 26.4 °F 31% 30.21 in 10.0 mi NNE 23.0 mph 27.6 mph N/A   Clear
10:35 AM 57.7 °F - 26.1 °F 30% 30.21 in 10.0 mi North 21.9 mph 26.5 mph N/A   Clear
10:55 AM 59.4 °F - 27.0 °F 29% 30.22 in 10.0 mi NNE 19.6 mph 23.0 mph N/A   Clear
11:20 AM 59.2 °F - 26.6 °F 29% 30.22 in 10.0 mi North 17.3 mph - N/A   Clear
11:35 AM 60.3 °F - 26.8 °F 28% 30.22 in 10.0 mi North 15.0 mph - N/A   Clear
11:55 AM 61.3 °F - 27.1 °F 27% 30.21 in 10.0 mi North 12.7 mph - N/A   Clear
12:15 PM 62.2 °F - 27.0 °F 26% 30.21 in 10.0 mi NNE 11.5 mph 16.1 mph N/A   Clear
12:35 PM 63.1 °F - 26.2 °F 25% 30.20 in 10.0 mi North 12.7 mph 19.6 mph N/A   Clear
12:55 PM 63.5 °F - 25.2 °F 23% 30.20 in 10.0 mi North 12.7 mph 16.1 mph N/A   Clear
1:15 PM 64.6 °F - 24.3 °F 22% 30.19 in 10.0 mi NNE 9.2 mph 17.3 mph N/A   Clear
1:35 PM 64.8 °F - 22.6 °F 20% 30.19 in 10.0 mi NNE 11.5 mph 17.3 mph N/A   Clear
1:55 PM 64.6 °F - 22.6 °F 20% 30.18 in 10.0 mi NW 6.9 mph - N/A   Clear
2:15 PM 65.3 °F - 22.5 °F 20% 30.18 in 10.0 mi North 8.1 mph - N/A   Clear
2:35 PM 65.5 °F - 21.9 °F 19% 30.17 in 10.0 mi North 5.8 mph - N/A   Clear
2:55 PM 65.7 °F - 21.9 °F 19% 30.17 in 10.0 mi Calm Calm - N/A   Clear
3:15 PM 66.4 °F - 22.3 °F 19% 30.17 in 10.0 mi North 8.1 mph - N/A   Clear
3:35 PM 66.4 °F - 19.8 °F 17% 30.17 in 10.0 mi NE 3.5 mph - N/A   Clear
3:55 PM 66.4 °F - 21.2 °F 18% 30.17 in 10.0 mi NNE 4.6 mph - N/A   Clear
4:15 PM 66.7 °F - 21.7 °F 18% 30.17 in 10.0 mi NW 3.5 mph - N/A   Clear
4:35 PM 66.2 °F - 19.6 °F 17% 30.17 in 10.0 mi NE 3.5 mph - N/A   Clear
4:55 PM 66.0 °F - 18.5 °F 16% 30.17 in 10.0 mi NNE 4.6 mph - N/A   Clear
5:15 PM 66.0 °F - 18.0 °F 16% 30.16 in 10.0 mi NNE 4.6 mph - N/A   Clear
5:35 PM 65.1 °F - 20.7 °F 18% 30.16 in 10.0 mi Calm Calm - N/A   Clear
5:55 PM 64.9 °F - 20.5 °F 18% 30.16 in 10.0 mi Calm Calm - N/A   Clear
6:15 PM 63.1 °F - 19.6 °F 19% 30.16 in 10.0 mi Calm Calm - N/A   Clear
6:35 PM 60.1 °F - 22.5 °F 24% 30.16 in 10.0 mi SE 4.6 mph - N/A   Clear
6:55 PM 57.4 °F - 23.7 °F 27% 30.16 in 10.0 mi SSE 5.8 mph - N/A   Clear
7:15 PM 55.4 °F - 23.9 °F 30% 30.16 in 10.0 mi SSE 6.9 mph - N/A   Clear
7:35 PM 53.4 °F - 23.7 °F 32% 30.16 in 10.0 mi SSE 6.9 mph - N/A   Clear
7:55 PM 51.4 °F - 23.7 °F 34% 30.17 in 10.0 mi SSE 5.8 mph - N/A   Clear
8:15 PM 51.3 °F - 23.7 °F 34% 30.17 in 10.0 mi SSE 6.9 mph - N/A   Clear
8:35 PM 51.6 °F - 23.5 °F 33% 30.17 in 10.0 mi SSE 5.8 mph - N/A   Clear
9:00 PM 50.9 °F - 23.5 °F 34% 30.18 in 10.0 mi South 4.6 mph - N/A   Clear
9:15 PM 49.5 °F - 23.9 °F 37% 30.17 in 10.0 mi SSW 4.6 mph - N/A   Clear
9:35 PM 46.8 °F - 24.1 °F 41% 30.18 in 10.0 mi SSW 5.8 mph - N/A   Clear
9:55 PM 45.5 °F 42.5 °F 23.9 °F 43% 30.17 in 10.0 mi SSW 5.8 mph - N/A   Clear
10:15 PM 42.8 °F 37.0 °F 24.3 °F 48% 30.17 in 10.0 mi SSW 10.4 mph - N/A   Clear
10:35 PM 41.2 °F 37.3 °F 26.1 °F 55% 30.16 in 10.0 mi South 5.8 mph - N/A   Clear
10:55 PM 45.5 °F 44.2 °F 26.1 °F 47% 30.16 in 10.0 mi SSE 3.5 mph - N/A   Clear
11:15 PM 45.9 °F - 25.5 °F 45% 30.16 in 10.0 mi Calm Calm - N/A   Clear
11:35 PM 44.8 °F 43.3 °F 25.5 °F 47% 30.14 in 10.0 mi SSW 3.5 mph - N/A   Clear
11:40 PM 44.6 °F 43.1 °F 24.8 °F 46% 30.14 in 10.0 mi SSW 3.5 mph - N/A   Clear
11:55 PM 42.8 °F 41.1 °F 25.5 °F 51% 30.13 in 10.0 mi SSW 3.5 mph - N/A   Clear